Weather History for KUNI - April, 2013

Change the Weather History Date:

Monday, April 22, 2013

  Actual Average (KPKB) Record (KPKB)
Temperature  
Mean Temperature 50 °F 56 °F  
Max Temperature 68 °F 68 °F 90 °F (1985)
Min Temperature 32 °F 44 °F 23 °F (1936)
Degree Days  
Heating Degree Days 15 10  
Month to date heating degree days 278  
Since 1 July heating degree days 4739  
Cooling Degree Days 0 1  
Month to date cooling degree days 12  
Year to date cooling degree days 15  
Moisture  
Dew Point 33 °F    
Average Humidity 53    
Maximum Humidity 89    
Minimum Humidity 25    
Precipitation  
Precipitation 0.00 in 0.11 in 0.52 in (2005)
Month to date precipitation 2.38  
Year to date precipitation 11.76  
Sea Level Pressure  
Sea Level Pressure 30.29 in    
Wind  
Wind Speed 1 mph (SSE)    
Max Wind Speed 8 mph    
Max Gust Speed -    
Visibility 10 miles    
Events      
T = Trace of Precipitation, MM = Missing Value Source: NWS Daily Summary

Daily Weather History Graph

Daily Weather History Graph

Search for Another Location

Airport or City:

Trip Planner

Search our weather history database for the weather conditions in past years. The results will help you decide how hot, cold, wet, or windy it might be!

Date:

Astronomy

Apr. 22, 2013 Rise Set
Actual Time 6:41 AM EDT 8:13 PM EDT
Civil Twilight 6:13 AM EDT 8:41 PM EDT
Nautical Twilight 5:39 AM EDT 9:15 PM EDT
Astronomical Twilight 5:03 AM EDT 9:51 PM EDT
Moon 5:02 PM EDT (4/22) 4:34 AM EDT (4/22)
Length of Visible Light 14h 28m
Length of Day
13h 31m
Waxing Gibbous, 87% of the Moon is Illuminated
Apr 22
Waxing Gibbous
Apr 25
Full
May 2
Last Quarter
May 9
New
May 18
First Quarter

Hourly Weather History & Observations

Time (EDT) Temp. Dew Point Humidity Pressure Visibility Wind Dir Wind Speed Gust Speed Precip Events Conditions
12:15 AM 41.0 °F 28.6 °F 61% 30.39 in 10.0 mi Calm Calm - N/A   Clear
12:35 AM 40.6 °F 30.2 °F 66% 30.39 in 10.0 mi Calm Calm - N/A   Clear
12:55 AM 41.7 °F 27.7 °F 58% 30.39 in 10.0 mi Calm Calm - N/A   Clear
1:15 AM 39.6 °F 28.2 °F 64% 30.38 in 10.0 mi Calm Calm - N/A   Clear
1:35 AM 38.3 °F 29.8 °F 72% 30.38 in 10.0 mi Calm Calm - N/A   Clear
1:55 AM 38.3 °F 28.2 °F 67% 30.37 in 10.0 mi Calm Calm - N/A   Clear
2:15 AM 37.4 °F 30.4 °F 76% 30.36 in 10.0 mi Calm Calm - N/A   Clear
2:35 AM 36.9 °F 30.0 °F 76% 30.36 in 10.0 mi Calm Calm - N/A   Clear
2:55 AM 37.0 °F 29.7 °F 75% 30.36 in 10.0 mi Calm Calm - N/A   Clear
3:15 AM 37.4 °F 27.7 °F 68% 30.35 in 10.0 mi Calm Calm - N/A   Clear
3:35 AM 36.9 °F 27.5 °F 69% 30.35 in 10.0 mi Calm Calm - N/A   Clear
3:55 AM 35.1 °F 30.2 °F 82% 30.35 in 10.0 mi Calm Calm - N/A   Clear
4:15 AM 34.9 °F 30.2 °F 83% 30.35 in 10.0 mi Calm Calm - N/A   Clear
4:35 AM 35.1 °F 29.7 °F 81% 30.34 in 10.0 mi Calm Calm - N/A   Clear
4:55 AM 34.7 °F 28.0 °F 77% 30.34 in 10.0 mi Calm Calm - N/A   Clear
5:15 AM 33.8 °F 29.8 °F 85% 30.34 in 10.0 mi Calm Calm - N/A   Clear
5:35 AM 34.2 °F 30.2 °F 85% 30.34 in 10.0 mi Calm Calm - N/A   Clear
5:55 AM 33.6 °F 29.8 °F 86% 30.34 in 10.0 mi Calm Calm - N/A   Clear
6:15 AM 32.7 °F 29.8 °F 89% 30.34 in 10.0 mi Calm Calm - N/A   Clear
6:35 AM 32.4 °F 29.3 °F 88% 30.34 in 10.0 mi Calm Calm - N/A   Clear
6:55 AM 32.5 °F 29.7 °F 89% 30.35 in 10.0 mi Calm Calm - N/A   Clear
7:15 AM 33.1 °F 29.5 °F 87% 30.35 in 10.0 mi Calm Calm - N/A   Clear
7:35 AM 33.8 °F 30.2 °F 87% 30.36 in 10.0 mi Calm Calm - N/A   Clear
7:55 AM 36.1 °F 32.5 °F 87% 30.36 in 10.0 mi Calm Calm - N/A   Clear
8:15 AM 43.7 °F 35.8 °F 74% 30.36 in 10.0 mi Calm Calm - N/A   Clear
8:35 AM 49.3 °F 32.9 °F 53% 30.36 in 10.0 mi SSE 3.5 mph - N/A   Clear
8:55 AM 50.9 °F 33.3 °F 51% 30.36 in 10.0 mi SSE 8.1 mph - N/A   Clear
9:15 AM 52.0 °F 33.4 °F 49% 30.36 in 10.0 mi SSE 5.8 mph - N/A   Clear
9:35 AM 53.1 °F 33.1 °F 47% 30.36 in 10.0 mi South 8.1 mph - N/A   Clear
9:55 AM 54.3 °F 33.6 °F 46% 30.36 in 10.0 mi SSE 8.1 mph - N/A   Clear
10:15 AM 55.4 °F 34.0 °F 44% 30.36 in 10.0 mi South 8.1 mph - N/A   Clear
10:35 AM 56.7 °F 35.2 °F 45% 30.36 in 10.0 mi South 3.5 mph - N/A   Clear
10:55 AM 57.9 °F 34.5 °F 41% 30.36 in 10.0 mi SW 5.8 mph - N/A   Clear
11:15 AM 59.0 °F 34.9 °F 40% 30.35 in 10.0 mi ESE 4.6 mph - N/A   Clear
11:35 AM 60.1 °F 35.6 °F 40% 30.34 in 10.0 mi South 4.6 mph - N/A   Clear
11:55 AM 61.0 °F 35.2 °F 38% 30.34 in 10.0 mi Calm Calm - N/A   Clear
12:15 PM 61.2 °F 35.6 °F 39% 30.32 in 10.0 mi Calm Calm - N/A   Clear
12:35 PM 62.8 °F 34.3 °F 35% 30.32 in 10.0 mi SE 3.5 mph - N/A   Clear
12:55 PM 63.7 °F 33.6 °F 33% 30.31 in 10.0 mi ESE 3.5 mph - N/A   Clear
1:15 PM 63.7 °F 34.2 °F 33% 30.29 in 10.0 mi WSW 3.5 mph - N/A   Clear
1:35 PM 65.1 °F 32.9 °F 30% 30.29 in 10.0 mi Calm Calm - N/A   Clear
1:55 PM 65.3 °F 32.2 °F 29% 30.27 in 10.0 mi South 4.6 mph - N/A   Clear
2:15 PM 66.2 °F 33.3 °F 29% 30.26 in 10.0 mi SW 6.9 mph - N/A   Clear
2:35 PM 66.7 °F 32.9 °F 28% 30.25 in 10.0 mi Calm Calm - N/A   Clear
2:55 PM 66.4 °F 33.3 °F 29% 30.24 in 10.0 mi Calm Calm - N/A   Clear
3:15 PM 67.6 °F 33.1 °F 28% 30.24 in 10.0 mi SE 4.6 mph - N/A   Clear
3:35 PM 68.2 °F 32.0 °F 26% 30.23 in 10.0 mi SSE 3.5 mph - N/A   Clear
3:55 PM 68.4 °F 33.1 °F 27% 30.22 in 10.0 mi South 6.9 mph - N/A   Clear
4:15 PM 68.5 °F 33.4 °F 27% 30.21 in 10.0 mi SE 6.9 mph - N/A   Scattered Clouds
4:35 PM 68.7 °F 32.2 °F 26% 30.20 in 10.0 mi Calm Calm - N/A   Scattered Clouds
4:55 PM 68.9 °F 33.6 °F 27% 30.20 in 10.0 mi ESE 4.6 mph - N/A   Scattered Clouds
5:15 PM 68.2 °F 32.4 °F 26% 30.19 in 10.0 mi Calm Calm - N/A   Scattered Clouds
5:35 PM 67.1 °F 31.6 °F 27% 30.19 in 10.0 mi Calm Calm - N/A   Clear
5:55 PM 68.0 °F 31.1 °F 25% 30.19 in 10.0 mi ESE 3.5 mph - N/A   Clear
6:15 PM 67.1 °F 31.3 °F 26% 30.19 in 10.0 mi East 4.6 mph - N/A   Clear
6:35 PM 67.5 °F 31.5 °F 26% 30.19 in 10.0 mi Calm Calm - N/A   Clear
6:55 PM 67.1 °F 31.1 °F 26% 30.18 in 10.0 mi SE 3.5 mph - N/A   Clear
7:15 PM 66.6 °F 31.6 °F 27% 30.18 in 10.0 mi East 3.5 mph - N/A   Clear
7:35 PM 66.2 °F 30.4 °F 26% 30.18 in 10.0 mi Calm Calm - N/A   Clear
7:55 PM 65.1 °F 31.5 °F 28% 30.18 in 10.0 mi Calm Calm - N/A   Clear
8:15 PM 62.6 °F 32.9 °F 33% 30.18 in 10.0 mi Calm Calm - N/A   Clear
8:35 PM 57.7 °F 37.2 °F 46% 30.18 in 10.0 mi Calm Calm - N/A   Clear
8:55 PM 56.5 °F 37.8 °F 50% 30.19 in 10.0 mi Calm Calm - N/A   Clear
9:15 PM 53.8 °F 41.2 °F 62% 30.19 in 10.0 mi Calm Calm - N/A   Clear
9:35 PM 51.6 °F 40.3 °F 65% 30.19 in 10.0 mi Calm Calm - N/A   Clear
9:55 PM 50.9 °F 39.2 °F 64% 30.19 in 10.0 mi Calm Calm - N/A   Clear
10:15 PM 49.1 °F 39.0 °F 68% 30.19 in 10.0 mi Calm Calm - N/A   Clear
10:35 PM 48.9 °F 38.1 °F 66% 30.19 in 10.0 mi Calm Calm - N/A   Clear
10:55 PM 48.4 °F 37.4 °F 66% 30.18 in 10.0 mi Calm Calm - N/A   Clear
11:15 PM 46.2 °F 37.4 °F 71% 30.19 in 10.0 mi Calm Calm - N/A   Clear
11:35 PM 46.4 °F 37.4 °F 71% 30.18 in 10.0 mi Calm Calm - N/A   Clear
11:55 PM 45.5 °F 38.7 °F 77% 30.18 in 10.0 mi Calm Calm - N/A   Clear